Time,TemperatureF,DewpointF,PressureIn,WindDirection,WindDirectionDegrees,WindSpeedMPH,WindSpeedGustMPH,Humidity,HourlyPrecipIn,Conditions,Clouds,dailyrainin,SolarRadiationWatts/m^2,SoftwareType,DateUTC
2013-02-20 00:00:00,18.0,12.0,-100.00,West,270,13.0,-999.0,75,-99.99,,,-99.99,0.000000,,2013-02-20 05:00:00,
2013-02-20 00:43:00,18.0,12.0,-100.00,West,270,13.0,-999.0,75,-99.99,,,-99.99,0.000000,,2013-02-20 05:43:00,
2013-02-20 00:52:00,18.0,12.0,-100.00,West,270,13.0,-999.0,75,-99.99,,,-99.99,0.000000,,2013-02-20 05:52:00,
2013-02-20 01:00:00,18.0,12.0,-100.00,West,270,14.0,-999.0,74,-99.99,,,-99.99,0.000000,,2013-02-20 06:00:00,
2013-02-20 01:42:00,18.0,12.0,-100.00,West,270,14.0,-999.0,74,-99.99,,,-99.99,0.000000,,2013-02-20 06:42:00,
2013-02-20 01:52:00,18.0,12.0,-100.00,West,270,14.0,-999.0,74,-99.99,,,-99.99,0.000000,,2013-02-20 06:52:00,
2013-02-20 03:00:00,18.0,12.0,-100.00,WNW,292,15.0,-999.0,74,-99.99,,,-99.99,0.000000,,2013-02-20 08:00:00,
2013-02-20 03:42:00,18.0,12.0,-100.00,WNW,292,15.0,-999.0,74,-99.99,,,-99.99,0.000000,,2013-02-20 08:42:00,
2013-02-20 03:52:00,18.0,12.0,-100.00,WNW,292,15.0,-999.0,74,-99.99,,,-99.99,0.000000,,2013-02-20 08:52:00,
2013-02-20 04:00:00,18.0,9.0,-100.00,WNW,292,15.0,-999.0,66,-99.99,,,-99.99,0.000000,,2013-02-20 09:00:00,
2013-02-20 04:42:00,18.0,9.0,-100.00,WNW,292,15.0,-999.0,66,-99.99,,,-99.99,0.000000,,2013-02-20 09:42:00,
2013-02-20 04:52:00,18.0,9.0,-100.00,WNW,292,15.0,-999.0,66,-99.99,,,-99.99,0.000000,,2013-02-20 09:52:00,
2013-02-20 05:00:00,18.0,9.0,-100.00,WNW,292,14.0,-999.0,68,-99.99,,,-99.99,0.000000,,2013-02-20 10:00:00,
2013-02-20 05:42:00,18.0,9.0,-100.00,WNW,292,14.0,-999.0,68,-99.99,,,-99.99,0.000000,,2013-02-20 10:42:00,
2013-02-20 05:52:00,18.0,9.0,-100.00,WNW,292,14.0,-999.0,68,-99.99,,,-99.99,0.000000,,2013-02-20 10:52:00,
2013-02-20 06:00:00,17.0,11.0,-100.00,NW,315,13.0,-999.0,76,-99.99,,,-99.99,0.000000,,2013-02-20 11:00:00,
2013-02-20 06:42:00,17.0,11.0,-100.00,NW,315,13.0,-999.0,76,-99.99,,,-99.99,0.000000,,2013-02-20 11:42:00,
2013-02-20 06:52:00,17.0,11.0,-100.00,NW,315,13.0,-999.0,76,-99.99,,,-99.99,0.000000,,2013-02-20 11:52:00,
2013-02-20 07:00:00,16.0,9.0,-100.00,NNW,337,13.0,-999.0,74,-99.99,,,-99.99,0.000000,,2013-02-20 12:00:00,
2013-02-20 07:42:00,16.0,9.0,-100.00,NNW,337,13.0,-999.0,74,-99.99,,,-99.99,0.000000,,2013-02-20 12:42:00,
2013-02-20 07:53:00,16.0,9.0,-100.00,NNW,337,13.0,-999.0,74,-99.99,,,-99.99,0.000000,,2013-02-20 12:53:00,
2013-02-20 09:00:00,18.0,8.0,-100.00,NW,315,13.0,-999.0,64,-99.99,,,-99.99,170.520004,,2013-02-20 14:00:00,
2013-02-20 09:42:00,18.0,8.0,-100.00,NW,315,13.0,-999.0,64,-99.99,,,-99.99,170.520004,,2013-02-20 14:42:00,
2013-02-20 09:52:00,18.0,8.0,-100.00,NW,315,13.0,-999.0,64,-99.99,,,-99.99,170.520004,,2013-02-20 14:52:00,
2013-02-20 10:00:00,19.0,7.0,-100.00,NW,315,14.0,-999.0,59,-99.99,,,-99.99,228.520004,,2013-02-20 15:00:00,
2013-02-20 10:42:00,19.0,7.0,-100.00,NW,315,14.0,-999.0,59,-99.99,,,-99.99,228.520004,,2013-02-20 15:42:00,
2013-02-20 10:52:00,19.0,7.0,-100.00,NW,315,14.0,-999.0,59,-99.99,,,-99.99,228.520004,,2013-02-20 15:52:00,
2013-02-20 11:00:00,20.0,7.0,-100.00,NW,315,15.0,-999.0,57,-99.99,,,-99.99,264.480011,,2013-02-20 16:00:00,
2013-02-20 11:42:00,20.0,7.0,-100.00,NW,315,15.0,-999.0,57,-99.99,,,-99.99,264.480011,,2013-02-20 16:42:00,
2013-02-20 11:52:00,20.0,7.0,-100.00,NW,315,15.0,-999.0,57,-99.99,,,-99.99,264.480011,,2013-02-20 16:52:00,
2013-02-20 12:00:00,20.0,8.0,-100.00,NW,315,13.0,-999.0,59,-99.99,,,-99.99,212.279999,,2013-02-20 17:00:00,
2013-02-20 12:42:00,20.0,8.0,-100.00,NW,315,13.0,-999.0,59,-99.99,,,-99.99,212.279999,,2013-02-20 17:42:00,
2013-02-20 12:52:00,20.0,8.0,-100.00,NW,315,13.0,-999.0,59,-99.99,,,-99.99,212.279999,,2013-02-20 17:52:00,
2013-02-20 13:00:00,21.0,8.0,-100.00,NW,315,12.0,-999.0,57,-99.99,,,-99.99,236.639999,,2013-02-20 18:00:00,
2013-02-20 13:42:00,21.0,8.0,-100.00,NW,315,12.0,-999.0,57,-99.99,,,-99.99,236.639999,,2013-02-20 18:42:00,
2013-02-20 13:52:00,21.0,8.0,-100.00,NW,315,12.0,-999.0,57,-99.99,,,-99.99,236.639999,,2013-02-20 18:52:00,
2013-02-20 14:00:00,21.0,8.0,-100.00,NW,315,12.0,-999.0,57,-99.99,,,-99.99,225.039993,,2013-02-20 19:00:00,
2013-02-20 14:32:00,21.0,8.0,-100.00,NW,315,12.0,-999.0,57,-99.99,,,-99.99,225.039993,,2013-02-20 19:32:00,
2013-02-20 14:42:00,21.0,8.0,-100.00,NW,315,12.0,-999.0,57,-99.99,,,-99.99,225.039993,,2013-02-20 19:42:00,
2013-02-20 14:52:00,21.0,8.0,-100.00,NW,315,12.0,-999.0,57,-99.99,,,-99.99,225.039993,,2013-02-20 19:52:00,
2013-02-20 15:00:00,22.0,9.0,-100.00,NW,315,12.0,-999.0,56,-99.99,,,-99.99,236.639999,,2013-02-20 20:00:00,
2013-02-20 15:41:00,22.0,9.0,-100.00,NW,315,12.0,-999.0,56,-99.99,,,-99.99,236.639999,,2013-02-20 20:41:00,
2013-02-20 15:52:00,22.0,9.0,-100.00,NW,315,12.0,-999.0,56,-99.99,,,-99.99,236.639999,,2013-02-20 20:52:00,
2013-02-20 16:00:00,21.0,9.0,-100.00,NW,315,13.0,-999.0,57,-99.99,,,-99.99,126.440002,,2013-02-20 21:00:00,
2013-02-20 16:42:00,21.0,9.0,-100.00,NW,315,13.0,-999.0,57,-99.99,,,-99.99,126.440002,,2013-02-20 21:42:00,
2013-02-20 16:52:00,21.0,9.0,-100.00,NW,315,13.0,-999.0,57,-99.99,,,-99.99,126.440002,,2013-02-20 21:52:00,
2013-02-20 17:00:00,21.0,10.0,-100.00,NW,315,11.0,-999.0,62,-99.99,,,-99.99,51.040001,,2013-02-20 22:00:00,
2013-02-20 17:43:00,21.0,10.0,-100.00,NW,315,11.0,-999.0,62,-99.99,,,-99.99,51.040001,,2013-02-20 22:43:00,
2013-02-20 17:52:00,21.0,10.0,-100.00,NW,315,11.0,-999.0,62,-99.99,,,-99.99,51.040001,,2013-02-20 22:52:00,
2013-02-20 18:00:00,21.0,10.0,-100.00,NW,315,10.0,-999.0,63,-99.99,,,-99.99,18.559999,,2013-02-20 23:00:00,
2013-02-20 18:43:00,21.0,10.0,-100.00,NW,315,10.0,-999.0,63,-99.99,,,-99.99,18.559999,,2013-02-20 23:43:00,
2013-02-20 18:53:00,21.0,10.0,-100.00,NW,315,10.0,-999.0,63,-99.99,,,-99.99,18.559999,,2013-02-20 23:53:00,
2013-02-20 19:00:00,21.0,11.0,-100.00,NNW,337,10.0,-999.0,65,-99.99,,,-99.99,1.160000,,2013-02-21 00:00:00,
2013-02-20 19:32:00,21.0,11.0,-100.00,NNW,337,10.0,-999.0,65,-99.99,,,-99.99,1.160000,,2013-02-21 00:32:00,
2013-02-20 19:42:00,21.0,11.0,-100.00,NNW,337,10.0,-999.0,65,-99.99,,,-99.99,1.160000,,2013-02-21 00:42:00,
2013-02-20 19:52:00,21.0,11.0,-100.00,NNW,337,10.0,-999.0,65,-99.99,,,-99.99,1.160000,,2013-02-21 00:52:00,
2013-02-20 20:00:00,21.0,11.0,-100.00,NW,315,8.0,-999.0,65,-99.99,,,-99.99,0.000000,,2013-02-21 01:00:00,
2013-02-20 20:42:00,21.0,11.0,-100.00,NW,315,8.0,-999.0,65,-99.99,,,-99.99,0.000000,,2013-02-21 01:42:00,
2013-02-20 20:52:00,21.0,11.0,-100.00,NW,315,8.0,-999.0,65,-99.99,,,-99.99,0.000000,,2013-02-21 01:52:00,
2013-02-20 21:00:00,22.0,12.0,-100.00,NW,315,8.0,-999.0,66,-99.99,,,-99.99,0.000000,,2013-02-21 02:00:00,
2013-02-20 22:00:00,22.0,13.0,-100.00,NW,315,8.0,-999.0,68,-99.99,,,-99.99,0.000000,,2013-02-21 03:00:00,
2013-02-20 22:42:00,22.0,13.0,-100.00,NW,315,8.0,-999.0,68,-99.99,,,-99.99,0.000000,,2013-02-21 03:42:00,
2013-02-20 22:52:00,22.0,13.0,-100.00,NW,315,8.0,-999.0,68,-99.99,,,-99.99,0.000000,,2013-02-21 03:52:00,
2013-02-20 23:00:00,22.0,14.0,-100.00,NNW,337,9.0,-999.0,71,-99.99,,,-99.99,0.000000,,2013-02-21 04:00:00,
2013-02-20 23:42:00,22.0,14.0,-100.00,NNW,337,9.0,-999.0,71,-99.99,,,-99.99,0.000000,,2013-02-21 04:42:00,
2013-02-20 23:52:00,22.0,14.0,-100.00,NNW,337,9.0,-999.0,71,-99.99,,,-99.99,0.000000,,2013-02-21 04:52:00,